SIA11 KLAX-RJAA

Flight info

Callsign SIA11
Flight time N/A
Altitude 32000
Route SUMMR2 MCKEY DCT LIBBO DCT BRINY DCT BOARS DCT AMAKR DCT REDWD DCT TRYSH DCT GAPNE/N0488F340 DCT 43N140W 46N150W 47N160W 47N170W 45N180E/N0488F360 41N170E 38N160E 36N150E/N0483F380 SEALS OTR13 LAPIL Y811 POROT Y809 SUPOK
Aircraft B77W/H-SDE1E2E3FGHIJ4J5M1P2RWXYZ/LB1D1

Departure

Time 2026-05-04 22:13
Airport Los Angeles International Airport (KLAX)

Arrival

Time N/A
Airport Narita International Airport (RJAA)
Time Latitude Longitude Altitude Speed Heading
2026-05-04 21:52 33.94020 -118.41086 130 ft 0 kts 83°
2026-05-04 22:02 33.94020 -118.41089 140 ft 3 kts 83°
2026-05-04 22:02 33.94014 -118.41119 125 ft 4 kts 66°
2026-05-04 22:02 33.94001 -118.41147 134 ft 4 kts 46°
2026-05-04 22:02 33.93980 -118.41167 125 ft 4 kts 25°
2026-05-04 22:03 33.93955 -118.41175 125 ft 4 kts 360°
2026-05-04 22:03 33.93947 -118.41175 125 ft 0 kts 353°
2026-05-04 22:05 33.93948 -118.41175 125 ft 2 kts 353°
2026-05-04 22:05 33.93977 -118.41179 125 ft 5 kts 353°
2026-05-04 22:05 33.94009 -118.41184 129 ft 5 kts 353°
2026-05-04 22:05 33.94041 -118.41189 125 ft 5 kts 353°
2026-05-04 22:06 33.94084 -118.41195 128 ft 7 kts 353°
2026-05-04 22:06 33.94134 -118.41202 128 ft 7 kts 353°
2026-05-04 22:06 33.94184 -118.41210 126 ft 7 kts 353°
2026-05-04 22:06 33.94241 -118.41218 127 ft 8 kts 354°
2026-05-04 22:07 33.94299 -118.41225 128 ft 8 kts 354°
2026-05-04 22:07 33.94358 -118.41232 127 ft 8 kts 354°
2026-05-04 22:07 33.94416 -118.41241 128 ft 8 kts 352°
2026-05-04 22:07 33.94474 -118.41252 128 ft 8 kts 351°
2026-05-04 22:08 33.94533 -118.41261 128 ft 8 kts 352°
2026-05-04 22:08 33.94591 -118.41271 126 ft 8 kts 352°
2026-05-04 22:08 33.94649 -118.41279 127 ft 8 kts 354°
2026-05-04 22:08 33.94708 -118.41286 127 ft 8 kts 354°
2026-05-04 22:09 33.94767 -118.41280 126 ft 9 kts 22°
2026-05-04 22:09 33.94802 -118.41210 126 ft 11 kts 76°
2026-05-04 22:09 33.94813 -118.41109 128 ft 13 kts 82°
2026-05-04 22:09 33.94825 -118.41001 127 ft 13 kts 82°
2026-05-04 22:10 33.94836 -118.40893 129 ft 13 kts 83°
2026-05-04 22:10 33.94846 -118.40786 128 ft 13 kts 83°
2026-05-04 22:10 33.94856 -118.40678 130 ft 13 kts 83°
2026-05-04 22:10 33.94868 -118.40571 129 ft 13 kts 83°
2026-05-04 22:11 33.94879 -118.40463 127 ft 13 kts 83°
2026-05-04 22:11 33.94891 -118.40356 127 ft 13 kts 83°
2026-05-04 22:11 33.94902 -118.40250 126 ft 13 kts 83°
2026-05-04 22:11 33.94913 -118.40143 129 ft 13 kts 83°
2026-05-04 22:12 33.94923 -118.40033 130 ft 13 kts 83°
2026-05-04 22:12 33.94955 -118.39938 127 ft 13 kts 40°
2026-05-04 22:12 33.95035 -118.39948 125 ft 13 kts 300°
2026-05-04 22:12 33.95030 -118.40072 130 ft 26 kts 264°
2026-05-04 22:13 33.94977 -118.40589 126 ft 99 kts 263°
2026-05-04 22:13 33.94862 -118.41699 126 ft 166 kts 263°
2026-05-04 22:13 33.94719 -118.43189 591 ft 180 kts 262°
2026-05-04 22:13 33.94552 -118.44715 1281 ft 185 kts 262°
2026-05-04 22:14 33.94401 -118.46253 1756 ft 188 kts 262°
2026-05-04 22:14 33.94295 -118.47897 1910 ft 208 kts 266°
2026-05-04 22:14 33.94242 -118.49722 2090 ft 227 kts 266°
2026-05-04 22:14 33.94184 -118.51663 2472 ft 237 kts 264°
2026-05-04 22:15 33.94032 -118.53658 3171 ft 240 kts 263°
2026-05-04 22:15 33.93862 -118.55677 3877 ft 245 kts 263°
2026-05-04 22:15 33.93697 -118.57705 4644 ft 245 kts 264°
2026-05-04 22:15 33.93531 -118.59780 5195 ft 249 kts 264°
2026-05-04 22:16 33.93368 -118.61851 5926 ft 250 kts 264°
2026-05-04 22:16 33.93199 -118.63979 6363 ft 260 kts 265°
2026-05-04 22:16 33.93203 -118.66134 6941 ft 256 kts 284°
2026-05-04 22:16 33.94023 -118.68052 7352 ft 262 kts 303°
2026-05-04 22:17 33.95083 -118.69893 7750 ft 270 kts 302°
2026-05-04 22:17 33.96118 -118.71756 8484 ft 266 kts 301°
2026-05-04 22:17 33.97150 -118.73618 9038 ft 270 kts 301°
2026-05-04 22:17 33.98198 -118.75506 9635 ft 272 kts 301°
2026-05-04 22:18 33.99252 -118.77403 10227 ft 275 kts 301°
2026-05-04 22:18 34.00343 -118.79369 10484 ft 292 kts 301°
2026-05-04 22:18 34.01515 -118.81482 10621 ft 313 kts 301°
2026-05-04 22:18 34.02766 -118.83734 10778 ft 333 kts 301°
2026-05-04 22:19 34.04098 -118.86130 11007 ft 353 kts 301°
2026-05-04 22:19 34.05486 -118.88625 11534 ft 363 kts 301°
2026-05-04 22:19 34.06908 -118.91182 12180 ft 370 kts 301°
2026-05-04 22:19 34.08351 -118.93775 12955 ft 375 kts 301°
2026-05-04 22:20 34.09811 -118.96400 13742 ft 379 kts 301°
2026-05-04 22:20 34.10786 -118.98159 14198 ft 382 kts 301°
2026-05-04 22:20 34.12778 -119.01750 15164 ft 387 kts 301°
2026-05-04 22:20 34.14280 -119.04460 15916 ft 390 kts 300°
2026-05-04 22:21 34.15793 -119.07194 16649 ft 394 kts 300°
2026-05-04 22:21 34.17321 -119.09956 17327 ft 397 kts 300°
2026-05-04 22:21 34.18859 -119.12740 18027 ft 401 kts 300°
2026-05-04 22:21 34.20410 -119.15549 18688 ft 404 kts 300°
2026-05-04 22:22 34.21445 -119.17424 19110 ft 405 kts 299°
2026-05-04 22:22 34.23010 -119.20260 19811 ft 406 kts 298°
2026-05-04 22:22 34.24578 -119.23105 20527 ft 407 kts 298°
2026-05-04 22:22 34.26150 -119.25962 21184 ft 409 kts 298°
2026-05-04 22:23 34.27732 -119.28841 21751 ft 413 kts 297°
2026-05-04 22:23 34.29329 -119.31746 22362 ft 415 kts 297°
2026-05-04 22:23 34.30927 -119.34656 23019 ft 417 kts 296°
2026-05-04 22:23 34.32534 -119.37581 23665 ft 418 kts 296°
2026-05-04 22:24 34.34147 -119.40523 24147 ft 421 kts 296°
2026-05-04 22:24 34.35768 -119.43484 24588 ft 424 kts 295°
2026-05-04 22:24 34.37405 -119.46478 25025 ft 428 kts 295°
2026-05-04 22:24 34.39055 -119.49495 25450 ft 432 kts 295°
2026-05-04 22:25 34.40727 -119.52531 25888 ft 436 kts 296°
2026-05-04 22:25 34.42598 -119.55485 26277 ft 448 kts 301°
2026-05-04 22:25 34.44639 -119.58357 26680 ft 452 kts 301°
2026-05-04 22:25 34.46702 -119.61249 27065 ft 455 kts 301°
2026-05-04 22:26 34.48772 -119.64157 27502 ft 457 kts 301°
2026-05-04 22:26 34.50841 -119.67068 27979 ft 455 kts 300°
2026-05-04 22:26 34.52913 -119.69999 28214 ft 461 kts 300°
2026-05-04 22:26 34.54995 -119.72977 28486 ft 465 kts 300°
2026-05-04 22:27 34.57104 -119.75979 28765 ft 469 kts 300°
2026-05-04 22:27 34.59226 -119.78992 29120 ft 471 kts 300°
2026-05-04 22:27 34.61355 -119.82019 29496 ft 472 kts 299°
2026-05-04 22:27 34.63489 -119.85061 29861 ft 474 kts 299°
2026-05-04 22:28 34.65630 -119.88115 30203 ft 475 kts 299°
2026-05-04 22:28 34.67767 -119.91168 30545 ft 474 kts 299°
2026-05-04 22:28 34.69902 -119.94220 30900 ft 474 kts 299°
2026-05-04 22:28 34.72007 -119.97233 31279 ft 473 kts 299°
2026-05-04 22:29 34.74162 -120.00322 31638 ft 473 kts 300°
2026-05-04 22:29 34.76287 -120.03368 31939 ft 473 kts 300°
2026-05-04 22:29 34.78421 -120.06436 31937 ft 477 kts 300°
2026-05-04 22:29 34.80559 -120.09510 32050 ft 475 kts 300°
2026-05-04 22:30 34.82697 -120.12584 32039 ft 475 kts 299°
2026-05-04 22:30 34.86912 -120.18649 32057 ft 472 kts 299°
2026-05-04 22:31 34.91137 -120.24746 32064 ft 470 kts 299°
2026-05-04 22:31 34.95353 -120.30843 32064 ft 471 kts 299°
2026-05-04 22:32 34.99575 -120.36957 32074 ft 471 kts 299°
2026-05-04 22:32 35.03797 -120.43082 32072 ft 472 kts 299°
2026-05-04 22:33 35.08029 -120.49232 32062 ft 473 kts 299°